Location: Unspecified
(0.0000°N, 0.0000°E)
Time: 02:00:04
(UTC+00:00)

A-11 Canister half - All Passes

Search period start: 08 February 2016 00:00
Search period end: 18 February 2016 00:00
Orbit: 1514 x 1686 km, 47.2° (Epoch: 06 February)

Date Brightness Start Highest point End Pass type
(mag) Time Alt. Az. Time Alt. Az. Time Alt. Az.
08 Feb - 04:51:16 10° SSW 05:00:27 39° SE 05:09:20 10° ENE visible
08 Feb - 06:55:56 10° WSW 07:05:17 46° NW 07:14:21 10° NNE daylight
08 Feb - 15:41:10 10° NNE 15:45:36 14° NE 15:50:04 10° ENE daylight
08 Feb - 17:41:17 10° NW 17:50:38 80° NE 18:00:21 10° SE daylight
08 Feb - 19:49:05 10° W 19:55:42 21° SW 20:02:31 10° S visible
09 Feb - 04:28:30 10° SSW 04:37:31 36° SE 04:46:13 10° ENE visible
09 Feb - 06:32:49 10° WSW 06:42:22 50° NW 06:51:36 10° NNE daylight
09 Feb - 15:19:08 10° NNE 15:22:37 12° NE 15:26:07 10° ENE daylight
09 Feb - 17:18:27 10° NNW 17:27:45 74° NE 17:37:23 10° SE daylight
09 Feb - 19:25:45 10° W 19:32:44 23° SW 19:39:56 10° S visible
10 Feb - 04:05:46 10° SSW 04:14:33 33° SE 04:23:04 10° ENE visible
10 Feb - 06:09:45 10° SW 06:19:27 55° NW 06:28:50 10° NNE daylight
10 Feb - 14:57:33 10° NNE 14:59:38 11° NE 15:01:43 10° ENE daylight
10 Feb - 16:55:38 10° NNW 17:04:52 68° NE 17:14:24 10° SE daylight
10 Feb - 19:02:27 10° W 19:09:46 25° SW 19:17:19 10° S visible
11 Feb - 03:43:04 10° S 03:51:35 30° SE 03:59:53 10° ENE visible
11 Feb - 05:46:42 10° SW 05:56:32 60° NW 06:06:03 10° NNE visible
11 Feb - 16:32:50 10° NNW 16:41:58 62° NE 16:51:23 10° SE daylight
11 Feb - 18:39:14 10° WNW 18:46:49 27° SW 18:54:41 10° S visible
12 Feb - 03:20:23 10° S 03:28:37 28° SE 03:36:39 10° ENE visible
12 Feb - 05:23:40 10° SW 05:33:37 65° NW 05:43:15 10° NNE visible
12 Feb - 07:36:56 10° WNW 07:39:00 11° NW 07:41:04 10° NNW daylight
12 Feb - 16:10:03 10° NNW 16:19:05 57° NE 16:28:23 10° SE daylight
12 Feb - 18:16:02 10° WNW 18:23:53 30° SW 18:32:00 10° S daylight
13 Feb - 02:57:44 10° S 03:05:39 26° SE 03:13:23 10° E visible
13 Feb - 05:00:39 10° SW 05:10:42 71° NW 05:20:25 10° NNE visible
13 Feb - 07:12:24 10° WNW 07:16:00 12° NW 07:19:34 10° NNW daylight
13 Feb - 15:47:17 10° NNW 15:56:12 52° NE 16:05:20 10° SE daylight
13 Feb - 17:52:52 10° WNW 18:00:56 33° SW 18:09:18 10° SSE daylight
14 Feb - 02:35:07 10° S 02:42:40 23° SE 02:50:04 10° E visible
14 Feb - 04:37:39 10° SW 04:47:47 76° NW 04:57:34 10° NE visible
14 Feb - 06:48:23 10° WNW 06:52:59 14° NW 06:57:34 10° NNW daylight
14 Feb - 15:24:31 10° NNW 15:33:18 48° NE 15:42:17 10° ESE daylight
14 Feb - 17:29:45 10° WNW 17:38:01 36° SW 17:46:35 10° SSE daylight
15 Feb - 02:12:32 10° S 02:19:40 21° SE 02:26:41 10° E visible
15 Feb - 04:14:41 10° SW 04:24:51 82° NW 04:34:43 10° NE visible
15 Feb - 06:24:35 10° W 06:30:00 16° NW 06:35:21 10° NNW daylight
15 Feb - 15:01:48 10° NNW 15:10:24 43° NE 15:19:11 10° ESE daylight
15 Feb - 17:06:39 10° WNW 17:15:05 39° SW 17:23:51 10° SSE daylight
16 Feb - 01:50:01 10° S 01:56:40 19° SE 02:03:14 10° E visible
16 Feb - 03:51:43 10° SW 04:01:56 89° NW 04:11:50 10° NE visible
16 Feb - 06:00:57 10° W 06:07:01 18° NW 06:13:01 10° N daylight
16 Feb - 14:39:04 10° NNW 14:47:31 40° NE 14:56:06 10° ESE daylight
16 Feb - 16:43:34 10° WNW 16:52:11 43° SW 17:01:05 10° SSE daylight
17 Feb - 01:27:32 10° S 01:33:40 17° SE 01:39:43 10° E visible
17 Feb - 03:28:47 10° SW 03:39:00 85° SE 03:48:55 10° NE visible
17 Feb - 05:37:23 10° W 05:44:02 20° NW 05:50:35 10° N visible
17 Feb - 14:16:23 10° NNW 14:24:37 36° NE 14:32:57 10° ESE daylight
17 Feb - 16:20:32 10° WNW 16:29:17 47° SW 16:38:18 10° SSE daylight
